Location: Norton
(51.3000°N, 0.8167°E)
Time: 11:33:01
(UTC+00:00)

IRS-1A Rocket - Pass Details

Date: 03 March 2021
Orbit: 852 x 931 km, 99.2° (Epoch: 16 April)

Event Time Altitude Azimuth Distance (km) Brightness Sun altitude
Exits shadow 19:46:41 16° 162° (SSE) 2,107 5.9 -20.3°
Maximum altitude 19:51:14 90° 259° (WSW) 878 4.2 -20.9°
Drops below altitude 10° 19:56:49 10° 344° (NNW) 2,510 7.1 -21.8°
Sets 19:59:11 0° 345° (NNW) 3,444 7.8 -22.1°
